When you browse on this site, cookies collect data to enhance your experience and personalize the content and advertising you see.
Visit our Privacy Policy to learn more. By continuing to use the site, you agree to this use of cookies and data.
  • In Spain
  • List of Countries
  • For 7 days
  • Water Temperature
  • Weather Map
  • Weather Widgets
  • user-avatar
    Login

    Hourly Weather Baksheevo

    Today, 5 June, Friday

    Time Temperature Precipitation Wind Pressure Humidity
    00:00 +8°C° 0 mm 2 mps 738 mmHg 95%
    01:00 +8°C° 0 mm 2 mps 738 mmHg 95%
    02:00 +7°C° 0 mm 3 mps 738 mmHg 96%
    03:00 +8°C° 0 mm 3 mps 738 mmHg 96%
    04:00 +8°C° 0 mm 2 mps 738 mmHg 96%
    05:00 +8°C° 0 mm 2 mps 738 mmHg 96%
    06:00 +10°C° 0 mm 2 mps 738 mmHg 91%
    07:00 +11°C° 0 mm 3 mps 738 mmHg 86%
    08:00 +13°C° 0 mm 3 mps 739 mmHg 82%
    09:00 +14°C° 0.2 mm 3 mps 739 mmHg 76%
    10:00 +16°C° 0.2 mm 3 mps 739 mmHg 71%
    11:00 +17°C° 0.2 mm 3 mps 739 mmHg 66%
    12:00 +18°C° 0.1 mm 3 mps 739 mmHg 64%
    13:00 +18°C° 0.1 mm 3 mps 739 mmHg 62%
    14:00 +19°C° 0.1 mm 2 mps 739 mmHg 60%
    15:00 +19°C° 0 mm 2 mps 739 mmHg 61%
    16:00 +19°C° 0 mm 2 mps 739 mmHg 62%
    17:00 +19°C° 0 mm 2 mps 739 mmHg 63%
    18:00 +17°C° 0 mm 2 mps 739 mmHg 71%
    19:00 +16°C° 0 mm 2 mps 740 mmHg 78%
    20:00 +14°C° 0 mm 2 mps 740 mmHg 86%
    21:00 +13°C° 0 mm 2 mps 740 mmHg 88%
    22:00 +12°C° 0 mm 2 mps 740 mmHg 91%
    23:00 +12°C° 0 mm 2 mps 741 mmHg 94%

    Tomorrow, 6 June, Saturday

    Time Temperature Precipitation Wind Pressure Humidity
    00:00 +10°C° 0 mm 3 mps 741 mmHg 94%
    01:00 +10°C° 0 mm 3 mps 741 mmHg 95%
    02:00 +10°C° 0 mm 3 mps 741 mmHg 95%
    03:00 +11°C° 0 mm 3 mps 741 mmHg 95%
    04:00 +12°C° 0 mm 3 mps 741 mmHg 95%
    05:00 +13°C° 0 mm 3 mps 741 mmHg 95%
    06:00 +15°C° 0 mm 4 mps 741 mmHg 91%
    07:00 +17°C° 0 mm 4 mps 741 mmHg 86%
    08:00 +19°C° 0 mm 4 mps 741 mmHg 82%
    09:00 +19°C° 0.2 mm 4 mps 741 mmHg 82%
    10:00 +20°C° 0.2 mm 4 mps 741 mmHg 83%
    11:00 +20°C° 0.2 mm 4 mps 742 mmHg 84%
    12:00 +20°C° 0.7 mm 4 mps 742 mmHg 85%
    13:00 +21°C° 0.7 mm 4 mps 742 mmHg 87%
    14:00 +21°C° 0.7 mm 4 mps 742 mmHg 88%
    15:00 +21°C° 0.6 mm 4 mps 742 mmHg 87%
    16:00 +22°C° 0.6 mm 4 mps 742 mmHg 85%
    17:00 +22°C° 0.6 mm 4 mps 742 mmHg 84%
    18:00 +21°C° 0.1 mm 3 mps 743 mmHg 87%
    19:00 +20°C° 0.1 mm 3 mps 743 mmHg 89%
    20:00 +18°C° 0.1 mm 2 mps 743 mmHg 92%
    21:00 +17°C° 0 mm 2 mps 744 mmHg 93%
    22:00 +16°C° 0 mm 2 mps 745 mmHg 93%
    23:00 +15°C° 0 mm 2 mps 745 mmHg 94%

    Day after tomorrow, 7 June, Sunday

    Time Temperature Precipitation Wind Pressure Humidity
    00:00 +15°C° 0 mm 2 mps 746 mmHg 94%
    01:00 +14°C° 0 mm 1 mps 746 mmHg 94%
    02:00 +13°C° 0 mm 1 mps 747 mmHg 94%
    03:00 +13°C° 0 mm 1 mps 747 mmHg 93%
    04:00 +14°C° 0 mm 1 mps 747 mmHg 93%
    05:00 +13°C° 0 mm 0 mps 747 mmHg 92%
    06:00 +16°C° 0 mm 1 mps 748 mmHg 85%
    07:00 +19°C° 0 mm 1 mps 748 mmHg 78%
    08:00 +21°C° 0 mm 1 mps 748 mmHg 72%
    09:00 +23°C° 0 mm 1 mps 748 mmHg 65%
    10:00 +24°C° 0 mm 1 mps 749 mmHg 59%
    11:00 +25°C° 0 mm 1 mps 749 mmHg 52%
    12:00 +26°C° 0 mm 2 mps 749 mmHg 52%
    13:00 +26°C° 0 mm 2 mps 748 mmHg 52%
    14:00 +27°C° 0 mm 2 mps 748 mmHg 52%
    15:00 +26°C° 0 mm 2 mps 748 mmHg 56%
    16:00 +26°C° 0 mm 2 mps 748 mmHg 61%
    17:00 +26°C° 0 mm 2 mps 747 mmHg 65%
    18:00 +24°C° 0 mm 2 mps 747 mmHg 72%
    19:00 +23°C° 0 mm 2 mps 747 mmHg 78%
    20:00 +20°C° 0 mm 2 mps 747 mmHg 84%
    21:00 +19°C° 0 mm 2 mps 747 mmHg 87%
    22:00 +19°C° 0 mm 2 mps 747 mmHg 90%
    23:00 +18°C° 0 mm 2 mps 748 mmHg 92%

    8 June, Monday

    Time Temperature Precipitation Wind Pressure Humidity
    00:00 +18°C° 0 mm 2 mps 748 mmHg 93%
    01:00 +17°C° 0 mm 2 mps 748 mmHg 95%
    02:00 +17°C° 0 mm 2 mps 748 mmHg 96%
    03:00 +18°C° 0 mm 2 mps 748 mmHg 95%
    04:00 +18°C° 0 mm 2 mps 748 mmHg 95%
    05:00 +18°C° 0 mm 2 mps 748 mmHg 94%
    06:00 +20°C° 0 mm 2 mps 748 mmHg 89%
    07:00 +23°C° 0 mm 2 mps 748 mmHg 83%
    08:00 +24°C° 0 mm 2 mps 748 mmHg 78%
    09:00 +25°C° 0.2 mm 2 mps 748 mmHg 76%
    10:00 +26°C° 0.2 mm 2 mps 748 mmHg 74%
    11:00 +27°C° 0.2 mm 2 mps 748 mmHg 72%
    12:00 +27°C° 1.2 mm 2 mps 748 mmHg 73%
    13:00 +27°C° 1.2 mm 1 mps 748 mmHg 73%
    14:00 +27°C° 1.2 mm 1 mps 748 mmHg 74%
    15:00 +27°C° 0.5 mm 1 mps 747 mmHg 73%
    16:00 +27°C° 0.5 mm 1 mps 747 mmHg 72%
    17:00 +27°C° 0.5 mm 1 mps 747 mmHg 71%
    18:00 +26°C° 0.2 mm 1 mps 747 mmHg 76%
    19:00 +24°C° 0.2 mm 1 mps 747 mmHg 82%
    20:00 +23°C° 0.2 mm 1 mps 747 mmHg 88%
    21:00 +22°C° 0.1 mm 1 mps 747 mmHg 89%
    22:00 +21°C° 0.1 mm 1 mps 747 mmHg 91%
    23:00 +20°C° 0.1 mm 1 mps 747 mmHg 93%

    9 June, Tuesday

    Time Temperature Precipitation Wind Pressure Humidity
    00:00 +20°C° 0 mm 1 mps 747 mmHg 93%
    01:00 +20°C° 0 mm 1 mps 747 mmHg 94%
    02:00 +19°C° 0 mm 1 mps 747 mmHg 94%
    03:00 +20°C° 0 mm 1 mps 748 mmHg 94%
    04:00 +20°C° 0 mm 1 mps 748 mmHg 94%
    05:00 +20°C° 0 mm 1 mps 748 mmHg 93%
    06:00 +22°C° 0.1 mm 1 mps 748 mmHg 89%
    07:00 +23°C° 0.1 mm 1 mps 748 mmHg 85%
    08:00 +25°C° 0.1 mm 2 mps 748 mmHg 81%
    09:00 +25°C° 0.1 mm 2 mps 748 mmHg 77%
    10:00 +26°C° 0.1 mm 2 mps 748 mmHg 72%
    11:00 +27°C° 0.1 mm 2 mps 748 mmHg 68%
    12:00 +27°C° 0.5 mm 2 mps 748 mmHg 70%
    13:00 +27°C° 0.5 mm 3 mps 748 mmHg 71%
    14:00 +27°C° 0.5 mm 3 mps 748 mmHg 73%
    15:00 +26°C° 0.8 mm 3 mps 748 mmHg 77%
    16:00 +26°C° 0.8 mm 3 mps 748 mmHg 81%
    17:00 +25°C° 0.8 mm 3 mps 748 mmHg 85%
    18:00 +24°C° 0.2 mm 3 mps 748 mmHg 87%
    19:00 +23°C° 0.2 mm 2 mps 748 mmHg 89%
    20:00 +21°C° 0.2 mm 2 mps 748 mmHg 91%
    21:00 +21°C° 0 mm 2 mps 748 mmHg 92%
    22:00 +20°C° 0 mm 3 mps 748 mmHg 93%
    23:00 +19°C° 0 mm 3 mps 748 mmHg 94%

    10 June, Wednesday

    Time Temperature Precipitation Wind Pressure Humidity
    00:00 +19°C° 0 mm 3 mps 748 mmHg 95%
    01:00 +18°C° 0 mm 2 mps 748 mmHg 96%
    02:00 +17°C° 0 mm 2 mps 748 mmHg 97%
    03:00 +17°C° 0 mm 2 mps 748 mmHg 97%
    04:00 +17°C° 0 mm 2 mps 748 mmHg 96%
    05:00 +17°C° 0 mm 2 mps 748 mmHg 96%
    06:00 +19°C° 0 mm 2 mps 748 mmHg 91%
    07:00 +20°C° 0 mm 3 mps 748 mmHg 86%
    08:00 +22°C° 0 mm 3 mps 749 mmHg 81%
    09:00 +24°C° 0 mm 3 mps 748 mmHg 75%
    10:00 +25°C° 0 mm 3 mps 748 mmHg 69%
    11:00 +26°C° 0 mm 3 mps 748 mmHg 63%
    12:00 +27°C° 0 mm 2 mps 748 mmHg 61%
    13:00 +27°C° 0 mm 2 mps 748 mmHg 60%
    14:00 +27°C° 0 mm 2 mps 747 mmHg 59%
    15:00 +27°C° 0.1 mm 2 mps 747 mmHg 62%
    16:00 +27°C° 0.1 mm 2 mps 747 mmHg 65%
    17:00 +26°C° 0.1 mm 2 mps 747 mmHg 68%
    18:00 +25°C° 0.2 mm 2 mps 747 mmHg 75%
    19:00 +23°C° 0.2 mm 1 mps 747 mmHg 83%
    20:00 +21°C° 0.2 mm 1 mps 747 mmHg 90%
    21:00 +20°C° 0 mm 1 mps 747 mmHg 91%
    22:00 +20°C° 0 mm 1 mps 747 mmHg 92%
    23:00 +19°C° 0 mm 1 mps 747 mmHg 94%
    Show more